Renat Huseynov

Olheiro - Qarabag
10 Set 2028
Domingo
Processo

Personalidade

Adaptabilidade (19) Ambição (6) Controvérsia (16) Lealdade (14) Pressão (3) Profissionalismo (11) Espírito Esportivo (16) Temperamento (12)

Perfil

Estilo de Treinamento Democrático
Licença Continental Pro
Determinação 7
Gestão de Pessoas 4
Motivação 11
Disciplina 6
Satisfação no Trabalho
100%
Fadiga
0%
Função Olheiro
Salário 65.3K p/s
Contrato 14.03.2029

Desempenho

Comportamento Bom
Eficácia do Treinamento
38%
Desenvolvimento do Jogador
30%
Prevenção de Lesões
60%
Implementação Tática
25%

Eventos Recentes

Avaliou um jogador agora
Participou de uma reunião de recrutamento agora
Avaliou um jogador agora
Avaliou um jogador agora
Avaliou um jogador agora
Avaliou um jogador agora
Avaliou um jogador 7d atrás
Avaliou um jogador 7d atrás

Monitorando agora

224
Jogador Clube Status Habilidade Confiança Observado Última observação Último voto
Brian De Keersmaecker Oxford United Ativo 148 / 139 40% 2 09.09.2028 -
Daichi Kamada Luton Town Ativo 160 / 143 40% 2 09.09.2028 -
Zaydou Youssouf Al-Fateh Ativo 128 / 152 40% 1 08.09.2028 -
Evgeny Latyshonok Nizhniy Novgorod Ativo 136 / 119 40% 3 07.09.2028 -
Christian Früchtl Red Bull Salzburg Ativo 133 / 124 40% 1 07.09.2028 -
Josh Cullen Walsall Ativo 152 / 144 40% 1 05.09.2028 -
Lewis Bate Stockport County Ativo 122 / 140 40% 1 05.09.2028 -
Ki-Jana Hoever Sparta Prague Ativo 144 / 137 40% 1 03.09.2028 -
Marius Marin Al Nasr Ativo 134 / 132 40% 2 01.09.2028 -
Ben Sheaf Wrexham Ativo 127 / 133 40% 1 01.09.2028 -
Filippo Rinaldi Parma Ativo 126 / 123 40% 2 30.08.2028 -
Diego Callai Sporting CP Ativo 144 / 131 40% 1 30.08.2028 -
Teddy Sharman-Lowe Barnsley Ativo 130 / 122 40% 1 29.08.2028 -
Maxim Borisko CSKA Moscow Ativo 141 / 126 40% 1 29.08.2028 -
Breno Almeida Neftchi Ativo 122 / 99 51% 1 28.08.2028 -
Iván Morante Girona Ativo 132 / 120 40% 1 25.08.2028 -
Nahuel Tenaglia Banfield Ativo 139 / 125 40% 1 25.08.2028 -
Rico Henry River Plate Ativo 127 / 136 40% 1 24.08.2028 -
Demarai Gray Birmingham Ativo 125 / 146 40% 1 24.08.2028 -
Alan Lescano Argentinos Juniors Ativo 144 / 149 40% 2 23.08.2028 -
Uriel Antuna Dinamo Moscow Ativo 124 / 121 40% 1 23.08.2028 -
Marek Rodák Al-Hilal Ativo 126 / 141 40% 1 22.08.2028 -
Fabricio Iacovich Girona Ativo 120 / 119 40% 1 21.08.2028 -
Gabriel Słonina Reading Ativo 118 / 148 40% 1 21.08.2028 -
Jonathan Fischer FC Metz Ativo 151 / 152 40% 1 17.08.2028 -
Marco Pompetti Padova Ativo 120 / 122 40% 2 15.08.2028 -
Eric Smith VfB Stuttgart Ativo 143 / 147 40% 2 15.08.2028 -
Hirokazu Ishihara FC Tokyo Ativo 126 / 113 40% 1 13.08.2028 -
Gonzalo Plata Nacional Ativo 154 / 138 40% 3 09.08.2028 -
Riccardo Gagno Vicenza Ativo 116 / 120 40% 2 08.08.2028 -
Christian Walton Ipswich Town Ativo 129 / 153 40% 1 08.08.2028 -
Sandi Lovrić Juve Stabia Ativo 138 / 130 40% 1 05.08.2028 -
Renato Sanches Leiria Ativo 132 / 142 40% 1 05.08.2028 -
Matteo Pessina Monza Ativo 126 / 135 40% 2 04.08.2028 -
Gianluca Saro Foggia Ativo 114 / 138 40% 2 03.08.2028 -
Joe Whitworth Wigan Athletic Ativo 122 / 139 40% 1 03.08.2028 -
Martin Frese Hellas Verona Ativo 135 / 145 40% 1 03.08.2028 -
Sam Proctor Salford City Ativo 140 / 126 40% 2 01.08.2028 -
Artem Dovbyk Hellas Verona Ativo 133 / 160 40% 8 01.08.2028 -
Amir Saipi Mallorca Ativo 128 / 119 40% 1 01.08.2028 -
Will Mannion Charlton Athletic Ativo 138 / 126 40% 1 30.07.2028 -
Alex Palmer Ipswich Town Ativo 141 / 133 40% 1 30.07.2028 -
Abduvohid Ne'matov Nasaf Ativo 146 / 118 40% 3 25.07.2028 -
Lautaro Morales Lanús Ativo 128 / 125 40% 1 25.07.2028 -
Gaëtan Coucke Sampdoria Ativo 143 / 145 40% 2 22.07.2028 -
Carlos Marín Albacete Perdido 120 / 128 40% 1 22.07.2028 -
Zakaria Aboukhlal Pescara Ativo 137 / 149 40% 2 20.07.2028 -
Vladan Kovačević Norwich City Ativo 118 / 114 40% 1 20.07.2028 -
Facundo Sanguinetti Banfield Ativo 138 / 133 40% 1 20.07.2028 -
Nikola Vasilj Racing Club Perdido 152 / 152 40% 1 18.07.2028 -
Christian Walton Ipswich Town Perdido 137 / 122 40% 1 18.07.2028 -
Frank Onyeka Coventry City Ativo 154 / 153 40% 1 12.07.2028 -
Florian Grillitsch Frosinone Ativo 150 / 141 40% 1 10.07.2028 -
Chiquinho Leixões Ativo 131 / 128 40% 1 08.07.2028 -
Lorenzo Ignacchiti Cesena Ativo 127 / 142 40% 1 08.07.2028 -
Jonathan Klinsmann Cesena Ativo 130 / 128 40% 4 01.07.2028 -
César Montes Lokomotiv Moscow Ativo 121 / 135 40% 1 30.06.2028 -
Bruno Silva Gabala Ativo 114 / 113 51% 1 06.06.2028 -
Freddy Vargas Neftchi Perdido 129 / 121 51% 1 02.06.2028 -
Fabián Correa Barranquilla Ativo 84 / 106 40% 2 27.05.2028 -
Olivier Mambwa Young Boys Ativo 123 / 104 40% 1 27.05.2028 -
Daniel Banjaqui Benfica Ativo 116 / 123 40% 2 26.05.2028 -
Costantino Favasuli Catanzaro Ativo 117 / 137 40% 1 26.05.2028 -
Seth Ridgeon Fulham Ativo 111 / 95 40% 2 24.05.2028 -
Nicolò Moranduzzo Renate Ativo 76 / 97 40% 1 24.05.2028 -
Marcus Ifill Crewe Alexandra Ativo 129 / 121 40% 1 23.05.2028 -
Ivan Varfolomeev Lincoln City Ativo 121 / 104 40% 1 23.05.2028 -
Jan Bürger Northampton Town Ativo 112 / 133 40% 4 21.05.2028 -
Alessio Insignito Spezia Ativo 89 / 126 40% 1 21.05.2028 -
Johnly Yfeko Exeter City Ativo 119 / 126 40% 2 20.05.2028 -
Josh Nichols Oldham Athletic Ativo 107 / 143 40% 3 19.05.2028 -
Jakub Adkonis Korona Ativo 108 / 93 40% 2 16.05.2028 -
Hosea Michael Remo Stars Ativo 76 / 111 40% 1 16.05.2028 -
Patrick Kelly Barnsley Ativo 118 / 118 40% 1 16.05.2028 -
Stefano Di Mario Virtus Entella Ativo 120 / 126 40% 1 14.05.2028 -
Baldovino Cimino Cosenza Ativo 132 / 117 40% 1 14.05.2028 -
Charlie Webster Burton Albion Ativo 130 / 130 40% 1 11.05.2028 -
Celías Ingenthron Platense Ativo 115 / 124 40% 2 07.05.2028 -
Isaac Monnier FC Lorient Ativo 104 / 95 40% 1 07.05.2028 -
Rhys Walters Port Vale Ativo 92 / 119 40% 3 04.05.2028 -
Georgie Gent Barnsley Ativo 114 / 108 40% 1 04.05.2028 -
Bruno Verrengia Vis Pesaro Ativo 113 / 116 40% 1 02.05.2028 -
Maxim Radchenko Rostov Ativo 97 / 92 40% 3 01.05.2028 -
Halam Loboa Sevilla Ativo 137 / 146 40% 1 29.04.2028 -
Riquelme Thompson-Jones Accrington Stanley Ativo 115 / 120 40% 2 28.04.2028 -
Jenson Jones Walsall Ativo 88 / 102 40% 2 27.04.2028 -
Tobías Ramírez River Plate Ativo 129 / 120 40% 4 23.04.2028 -
Jorthy Mokio ADO Den Haag Ativo 127 / 139 40% 1 20.04.2028 -
Tyrique Mercera Groningen Ativo 119 / 138 40% 1 18.04.2028 -
Ousmane Simpara Etoiles du Mande Ativo 90 / 118 40% 1 17.04.2028 -
Andrea Bertoncini Triestina Ativo 80 / 108 40% 2 15.04.2028 -
Jason Witsel PSV Ativo 136 / 132 40% 1 13.04.2028 -
Martim Cunha Porto Ativo 108 / 110 40% 5 09.04.2028 -
Miguel Figueiredo Benfica Ativo 107 / 115 40% 1 07.04.2028 -
Makar Vysochenko Spartak Moscow Ativo 76 / 91 40% 2 03.04.2028 -
Andrey Ivlev Nizhniy Novgorod Ativo 106 / 117 40% 3 02.04.2028 -
Kelian Le Pironnec Mirandés Ativo 80 / 106 40% 1 02.04.2028 -
Bernardo Lima Porto Ativo 92 / 113 40% 3 28.03.2028 -
Victor Hernandez Santa Fe Ativo 132 / 138 40% 2 28.03.2028 -
Gustavo Albarracín Alavés Ativo 114 / 123 40% 1 26.03.2028 -
Othniël Raterink Cagliari Ativo 106 / 116 40% 2 18.03.2028 -
Claudio Martey Pianese Ativo 85 / 98 40% 1 13.03.2028 -
Avery Appiah Ajax Ativo 105 / 136 40% 1 09.03.2028 -
Esquerdinha Notts County Ativo 116 / 122 40% 1 11.02.2028 -
Jonny Shore New York City Ativo 96 / 88 40% 4 06.02.2028 -
Colin Guske Orlando City Ativo 106 / 101 40% 4 17.01.2028 -
Darnell Furlong Leyton Orient Ativo 119 / 119 40% 1 28.12.2027 -
Aaron Collins Milton Keynes Dons Ativo 129 / 136 40% 1 27.12.2027 -
Joao Ortiz Portland Timbers Ativo 110 / 133 40% 1 25.12.2027 -
Ilja Samoshnikov Spartak Moscow Ativo 129 / 129 40% 2 23.12.2027 -
Luca Gemello Perugia Ativo 124 / 125 40% 1 22.12.2027 -
Facundo Altamirano San Lorenzo Ativo 108 / 116 40% 1 22.12.2027 -
Njabulo Blom Pakhtakor Ativo 133 / 121 40% 4 17.12.2027 -
Nazmi Gripshi Rubin Ativo 117 / 106 40% 1 17.12.2027 -
Joel Ezra Enyimba Ativo 82 / 89 40% 1 17.12.2027 -
Gabriel Díaz Patronato Ativo 102 / 100 40% 1 15.12.2027 -
Koffi Kouao Neftchi Ativo 132 / 140 40% 6 07.12.2027 -
Uerdi Mara Gabala Rejeitado 133 / 108 40% 1 06.12.2027 Mais informações
Ivan Lomaev Ufa Ativo 113 / 109 40% 7 03.12.2027 -
Matias Siltanen Malmo FF Ativo 114 / 145 40% 3 28.11.2027 -
Leandro Antunes Al-Riyadh Ativo 111 / 118 40% 1 27.11.2027 -
Yury Oyarzo Racing Ativo 98 / 106 40% 1 23.11.2027 -
Hugo Rojas Instituto Ativo 100 / 112 40% 1 23.11.2027 -
Jon Esenga IF Elfsborg Ativo 84 / 120 40% 2 20.11.2027 -
Agustín Obregón River Plate Ativo 118 / 111 40% 1 20.11.2027 -
Daniel Barrea Godoy Cruz Ativo 106 / 137 40% 2 19.11.2027 -
Santiago Fernández Talleres Ativo 104 / 135 40% 1 18.11.2027 -
Igor Jesus Los Angeles Football Club Ativo 137 / 134 40% 2 14.11.2027 -
Igor Dmitriev Spartak Moscow Ativo 137 / 123 40% 1 14.11.2027 -
Semuel Pizzignacco Monza Ativo 145 / 123 40% 2 13.11.2027 -
Adrian Šemper Al-Fateh Ativo 138 / 142 40% 1 11.11.2027 -
Vladimir Nazarov Pakhtakor Ativo 105 / 99 40% 2 10.11.2027 -
Armando Méndez Newell's Old Boys Ativo 140 / 118 40% 3 06.11.2027 -
Maxim Petrov Baltika Ativo 112 / 126 40% 2 05.11.2027 -
Renato Solís Sporting Cristal Ativo 144 / 119 40% 1 01.11.2027 -
Franco Hanashiro Colegiales Ativo 97 / 93 40% 1 29.10.2027 -
Mauricio Vera Bhayangkara Presisi Ativo 107 / 100 40% 2 24.10.2027 -
Somtochuwku Ezenabo Kwara United Ativo 88 / 102 40% 1 22.10.2027 -
Ivar Jenner Dewa United Ativo 93 / 114 40% 1 21.10.2027 -
Henrique Carmo Sochi Ativo 119 / 133 40% 1 14.10.2027 -
Sebastián Flores Ferro Carril Oeste Ativo 116 / 110 40% 1 11.10.2027 -
Tomás Belmonte Boca Juniors Ativo 132 / 119 40% 3 07.10.2027 -
Justin Haak LA Galaxy Ativo 100 / 111 40% 1 06.10.2027 -
Samuele Perisan Reggiana Ativo 135 / 125 40% 1 06.10.2027 -
Tim Iroegbunam Peterborough United Ativo 140 / 143 40% 1 04.10.2027 -
Temirlan Anarbekov Kairat Ativo 105 / 104 40% 3 30.09.2027 -
Ivan Oleinikov Krylya Sovetov Ativo 114 / 111 40% 1 25.09.2027 -
Fernando Costanza Krylya Sovetov Ativo 115 / 137 40% 1 24.09.2027 -
Hojiakbar Alijonov Pakhtakor Ativo 123 / 129 40% 2 22.09.2027 -
Malcom Braida Boca Juniors Ativo 114 / 112 40% 2 20.09.2027 -
Tiago Gordillo San Miguel Ativo 92 / 102 40% 1 16.09.2027 -
Mathías de Ritis San Lorenzo Ativo 110 / 101 40% 1 16.09.2027 -
Yuri Casermeiro Central Córdoba SdE Ativo 112 / 106 40% 1 14.09.2027 -
Evgeny Staver Rubin Ativo 102 / 106 40% 7 12.09.2027 -
Ilja Pomazun Spartak Moscow Ativo 106 / 120 40% 1 09.09.2027 -
Anton Mitryushkin Lokomotiv Moscow Ativo 113 / 118 40% 1 09.09.2027 -
Santiago Quiros Racing Club Ativo 115 / 140 40% 1 06.09.2027 -
Chibueze Oputa Rangers International Ativo 82 / 93 40% 1 05.09.2027 -
Hian Rincón Once Caldas Ativo 96 / 94 40% 1 05.09.2027 -
Leandro Lozano Boca Juniors Ativo 144 / 127 40% 1 01.09.2027 -
Juan Diego Perdomo Depor Ativo 71 / 104 40% 2 30.08.2027 -
Siaka Sidibé Al Wasl Ativo 121 / 124 40% 1 28.08.2027 -
Yann Bodiger Málaga Ativo 133 / 138 40% 1 14.08.2027 -
Wilfried Kanga Al-Fateh Ativo 131 / 114 40% 1 10.08.2027 -
Mohau Nkota Al-Ettifaq Ativo 134 / 135 40% 2 04.08.2027 -
Franchu Basaksehir Ativo 112 / 132 40% 1 02.08.2027 -
Kostas Galanopoulos Panathinaikos Ativo 118 / 108 40% 1 30.07.2027 -
Peter Olayinka Al-Wehda Ativo 120 / 115 40% 7 28.07.2027 -
Yassine Benzia Al-Qadisiyah Ativo 133 / 134 40% 1 19.07.2027 -
Ugochukwu Iwu Rubin Ativo 121 / 138 40% 1 12.07.2027 -
Cedric Teuchert Borussia Mönchengladbach Ativo 119 / 132 40% 1 08.07.2027 -
Joaquín Almería Ativo 116 / 108 40% 1 03.07.2027 -
Álex Muñoz Almería Ativo 118 / 126 40% 1 02.07.2027 -
Jota Silva Olympiacos Ativo 118 / 118 40% 5 14.06.2027 -
Daniil Ustimenko Tobol Ativo 129 / 116 40% 1 27.05.2027 -
Mats Egbring Heerenveen Ativo 85 / 90 40% 1 21.05.2027 -
Guilherme Pires Sporting CP Ativo 83 / 115 40% 1 09.05.2027 -
Maycon Cleiton Zira Ativo 102 / 94 40% 3 07.05.2027 -
Riley Owen Stevenage Ativo 120 / 89 40% 3 07.05.2027 -
Gonçalo Oliveira Benfica Ativo 92 / 97 40% 1 07.05.2027 -
Islam Imamov SKA Khabarovsk Ativo 91 / 97 40% 2 25.04.2027 -
Bogdan Ovsyannikov Orenburg Ativo 98 / 118 40% 4 22.04.2027 -
Timur Akmurzin Dinamo Bryansk Ativo 104 / 96 40% 3 18.04.2027 -
Rostislav Soldatenko Torpedo Moscow Ativo 90 / 96 40% 7 11.04.2027 -
Rustam Yatimov Rostov Perdido 121 / 119 40% 3 08.04.2027 Observar
Samuele di Benedetto Twente Ativo 120 / 118 40% 2 03.04.2027 -
Tiago Freitas Benfica Ativo 122 / 132 40% 2 02.04.2027 -
Leandro Martins Benfica Ativo 105 / 110 40% 1 30.03.2027 -
Wessel Kuhn PSV Ativo 102 / 112 40% 2 25.03.2027 -
Kiani Inge Groningen Ativo 105 / 99 40% 2 25.03.2027 -
Petr Kosarevskiy Sibir Ativo 87 / 108 40% 3 11.03.2027 -
Kyllian Antonio RC Lens Ativo 87 / 113 40% 1 05.03.2027 -
Nikita Yanovich Tyumen Ativo 101 / 77 40% 3 25.02.2027 -
Jaygo van Ommeren Utrecht Ativo 108 / 96 40% 1 24.02.2027 -
Filippo Manfrin Arzignano Ativo 107 / 116 40% 2 23.02.2027 -
Kirill Glazunov Zenit Ativo 96 / 97 40% 1 16.02.2027 -
Bade Aluko Leicester City Ativo 123 / 102 40% 1 11.02.2027 -
Law McCabe Middlesbrough Ativo 95 / 128 40% 1 04.02.2027 -
Mahir Mammadov AZAL Ativo 89 / 91 40% 1 04.02.2027 -
Ilja Tuseev Chelyabinsk Ativo 84 / 89 40% 4 21.01.2027 -
Daniel Vernattus Metalist Ativo 73 / 90 40% 1 16.01.2027 -
Miodrag Pivaš Newcastle United Ativo 115 / 101 40% 1 07.01.2027 -
Egor Bogomolskiy Zira Ativo 99 / 89 51% 1 02.01.2027 -
Diogo Monteiro Tondela Ativo 83 / 105 40% 1 01.01.2027 -
Pedro Rocha Juventude Ativo 92 / 94 40% 2 28.12.2026 -
Konta Ismaily Ativo 72 / 81 40% 1 25.12.2026 -
Oleh Bilyk Epicentr Ativo 85 / 88 40% 2 21.12.2026 -
Samuel Nibombé Monaco Ativo 103 / 122 40% 1 16.12.2026 -
Leonardo Marson Gubbio Ativo 98 / 101 40% 1 14.12.2026 -
Illaijh de Ruijter ADO Den Haag Ativo 114 / 138 40% 2 10.12.2026 -
Federico Valentini Forli Ativo 79 / 93 40% 1 10.12.2026 -
Ignacio Ovando Rosario Central Ativo 107 / 103 40% 1 09.12.2026 -
Timur Kraikov Sokol Ativo 83 / 92 40% 3 06.12.2026 -
Stanislav Kleschuk Gomel Ativo 89 / 75 40% 1 29.11.2026 -
Jan Paluska Slavia Prague Ativo 121 / 109 40% 1 24.11.2026 -
Maxim Belov Dinamo Brest Ativo 109 / 97 40% 1 22.11.2026 -
Josh Wynder Benfica Ativo 94 / 120 40% 1 03.11.2026 -
Suhail Abdulla Al Wasl Ativo 90 / 88 40% 1 26.10.2026 -
Fedor Lapoukhov Osasuna Ativo 116 / 122 40% 1 07.10.2026 -
Samuel Brolin Kalmar FF Ativo 127 / 119 40% 1 19.09.2026 -
Jannik Schuster Brentford Ativo 97 / 119 40% 1 09.09.2026 -
Ezra Mayers West Ham United Ativo 102 / 116 40% 1 09.09.2026 -
Thiago Dowd Racing Club Ativo 77 / 79 40% 1 01.09.2026 -
Maximiliano Duarte Independiente Ativo 100 / 88 40% 1 31.08.2026 -